Regional Weather Roundup
Issued by NWS Upton, NY

Current Version | Previous Version | Text Only | Print | Product List | Glossary On
Versions: 1 2 3 4 5 6 7 8 9 10 11 12 13 14 15 16 17 18 19 20 21 22 23 24 25 26 27 28 29 30 31 32 33 34 35 36 37 38 39 40 41 42 43 44 45 46 47 48 49 50
000
ASUS41 KOKX 281004
RWROKX

REGIONAL WEATHER ROUNDUP
NATIONAL WEATHER SERVICE NEW YORK NY
600 AM EDT FRI AUG 28 2015

NOTE: "FAIR" INDICATES FEW OR NO CLOUDS BELOW 12,000 FEET WITH NO
SIGNIFICANT WEATHER AND/OR OBSTRUCTIONS TO VISIBILITY.

NYZ071-072-176-178-NJZ106-104-281100-
NEW YORK CITY METRO AREA


CITY           SKY/WX    TMP DP  RH WIND       PRES   REMARKS
CENTRAL PARK   CLEAR     64  53  67 CALM      30.17R
LAGUARDIA APRT PTCLDY    66  55  67 N3        30.13S
KENNEDY INTL   PTCLDY    65  55  70 NW5       30.15R
NEWARK/LIBERTY PTCLDY    63  53  70 N6        30.14S
BRNX BOT. GARD   N/A     61  54  77 E1        30.15F
TETERBORO      CLEAR     62  53  72 CALM      30.14R
$$

NYZ177-179-078>081-281100-
LONG ISLAND NEW YORK

CITY           SKY/WX    TMP DP  RH WIND       PRES   REMARKS
FARMINGDALE    CLEAR     65  54  67 NW5       30.14R
ISLIP          PTCLDY    63  55  75 NW6       30.11R
SHIRLEY        PTCLDY    61  56  83 NW6       30.13R
WESTHAMPTON    CLOUDY    58  55  90 CALM      30.13S
MONTAUK POINT    N/A     67  60  78 N3        30.12R
$$

NYZ052-065-067-281100-
HUDSON VALLEY

CITY           SKY/WX    TMP DP  RH WIND       PRES   REMARKS
WHITE PLAINS   CLEAR     59  53  80 NW6       30.14R
NEWBURGH       CLEAR     54  54 100 W7        30.17R
MONTGOMERY     CLEAR     52  51  97 CALM      30.16R
POUGHKEEPSIE   CLEAR     52  50  93 CALM      30.15R
ALBANY         MOCLDY    57  53  86 CALM      30.16R
$$

NJZ001-105-106-008-010-013-015-019>022-104-281100-
NEW JERSEY

CITY           SKY/WX    TMP DP  RH WIND       PRES   REMARKS
NEWARK/LIBERTY PTCLDY    63  53  70 N6        30.14S
TETERBORO      CLEAR     62  53  72 CALM      30.14R
CALDWELL       CLEAR     56  52  86 CALM      30.16R
MORRISTOWN     CLEAR     48  45  87 CALM      30.16R
SOMERVILLE     CLEAR     52  49  89 CALM      30.14S
SUSSEX         CLEAR     49  47  93 CALM      30.17R
ANDOVER          N/A     51  50  96 CALM      30.18
TRENTON        CLEAR     59  54  83 N8        30.15R
MILLVILLE      CLEAR     54  52  93 CALM      30.15R
ATLANTIC CITY  CLEAR     57  53  86 NW3       30.15R
WRIGHTSTOWN    CLEAR     57  55  93 NW2       30.13R
TOMS RIVER     CLEAR     50  46  87 CALM      30.15S
BELMAR         CLEAR     57  48  72 NW5       30.14S
$$

PAZ047>061-062-071-281100-
EASTERN PENNSYLVANIA

CITY           SKY/WX    TMP DP  RH WIND       PRES   REMARKS
PHILADELPHIA   PTCLDY    64  54  69 N5        30.16S
ALLENTOWN      CLEAR     54  52  93 CALM      30.17S
SCRANTON       MOCLDY    54  50  86 E5        30.19R
$$

CTZ002-004>006-009-010-012-RIZ004-006-007-MAZ004-011-015-281100-
SOUTHERN NEW ENGLAND
 IN CT

CITY           SKY/WX    TMP DP  RH WIND       PRES   REMARKS
BRADLEY INTL   CLEAR     55  52  89 CALM      30.13R
HARTFORD       CLEAR     57  56  96 CALM      30.13R
DANBURY        CLEAR     53  49  86 CALM      30.16R
WTRBRY/OXFORD  CLEAR     55  48  76 NW6       30.17R
BRIDGEPORT     CLOUDY    65  54  67 NW5       30.13R
MERIDEN        CLEAR     54  51  90 CALM      30.14R
NEW HAVEN      CLOUDY    60  55  83 N3        30.13R
CHESTER        NOT AVBL
GROTON         PTCLDY    59  56  89 N6        30.11R
WILLIMANTIC    PTCLDY    54  52  93 CALM      30.13R FOG

 IN RI

CITY           SKY/WX    TMP DP  RH WIND       PRES   REMARKS
PROVIDENCE     PTCLDY    58  55  90 SW3       30.12R
BLOCK ISLAND   CLEAR     63  59  88 N3        30.11R
WESTERLY       CLEAR     58  55  90 N3        30.12R

 IN MA

CITY           SKY/WX    TMP DP  RH WIND       PRES   REMARKS
BOSTON         PTCLDY    64  53  67 W9        30.11R
WORCESTER      CLEAR     57  53  86 NW8       30.14R
WESTFIELD      CLEAR     57  53  86 N3        30.14R
PROVINCETOWN   CLEAR     64  55  72 N8        30.10R
NANTUCKET      CLEAR     66  58  75 N8        30.09R
$$

ANZ330-335-338-340-345-350-353-355-281100-
COASTAL MARINE OBSERVATIONS


STATION/POSITION TIME  SKY/WX   TEMP    WIND        PRES    VSBY  WAVE
                                AIR SEA DIR/SP/G                  HT/PER
                 (UTC)          (F)     (DEG/KT/KT) (MB)    (MI)  (FT/S)
NY HARB ENTRANCE 0850            70 75  350/ 10/ 12 1019.7          2/ 9
4S FIRE IS       NOT AVBL
20S FIRE ISLAND  0850            70 74  360/ 12/ 14 1019.4          3/11
GREAT SOUTH BAY  0900            65 78   10/  2/  2   N/A
23SW MTP         0950            69 73   10/ 10/ 12 1019.0          3/10
HUDSON CANYON    NOT AVBL
KINGS POINT      0900            67 67  360/  4/  6 1019.6
EXECUTION ROCKS  0900            67     280/  4/  6   N/A
CENTRAL LI SOUND NOT AVBL
EASTERN LI SOUND 0900            65 71  360/ 12/ 14   N/A
ROBBINS REEF     0900            65     330/  8/  9 1019.3
$$


>>>>>>>>>>>>>>>>>>>>>>>>>>>> KEY <<<<<<<<<<<<<<<<<<<<<<<<<<<
>                                                          <
>     SKY/WX - SKY CONDITION/PRESENT WEATHER               <
>     TMP    - TEMPERATURE IN FAHRENHEIT                   <
>     DP     - DEWPOINT IN FAHRENHEIT                      <
>     RH     - RELATIVE HUMIDITY IN PERCENT                <
>     WIND   - DIRECTION AND SPEED IN MPH                  <
>     PRES   - MEAN SEA LEVEL PRESSURE IN INCHES OF HG     <
>     WCI    - WIND CHILL INDEX                            <
>     VSB    - VISIBILITY IN MILES                         <
>     HX     - HEAT INDEX                                  <
>     TC     - TEMPERATURE IN CELSIUS                      <
>     VRB    - VARIABLE WIND DIRECTION                     <
>                                                          <
>>>>>>>>>>>>>>>>>>>>>>>>>>>> KEY <<<<<<<<<<<<<<<<<<<<<<<<<<<




USA.gov is the U.S. government's official web portal to all federal, state and local government web resources and services.